Time,TemperatureF,DewpointF,PressureIn,WindDirection,WindDirectionDegrees,WindSpeedMPH,WindSpeedGustMPH,Humidity,HourlyPrecipIn,Conditions,Clouds,dailyrainin,SoftwareType,DateUTC
2013-01-10 00:09:00,50.1,48.2,29.92,WNW,285,0.0,0.0,93,0.00,,---,0.00,VWS V14.01,2013-01-10 08:09:00,
2013-01-10 00:19:00,50.2,48.3,29.92,WNW,285,0.0,0.0,93,0.00,,---,0.00,VWS V14.01,2013-01-10 08:19:00,
2013-01-10 00:24:00,50.2,48.3,29.92,WNW,285,0.0,0.0,93,0.00,,---,0.00,VWS V14.01,2013-01-10 08:24:00,
2013-01-10 00:34:00,50.2,48.3,29.91,WNW,285,0.0,0.0,93,0.00,,---,0.00,VWS V14.01,2013-01-10 08:34:00,
2013-01-10 00:44:00,50.2,48.3,29.91,WNW,285,0.0,0.0,93,0.00,,---,0.00,VWS V14.01,2013-01-10 08:44:00,
2013-01-10 00:49:00,50.2,48.3,29.91,WNW,285,0.0,0.0,93,0.00,,---,0.00,VWS V14.01,2013-01-10 08:49:00,
2013-01-10 00:59:00,50.2,48.3,29.91,WNW,285,0.0,0.0,93,0.00,,---,0.00,VWS V14.01,2013-01-10 08:59:00,
2013-01-10 01:04:00,50.1,48.2,29.91,WNW,285,0.0,0.0,93,0.00,,---,0.00,VWS V14.01,2013-01-10 09:04:00,
2013-01-10 01:14:00,50.1,48.2,29.91,WNW,285,0.0,0.0,93,0.00,,---,0.00,VWS V14.01,2013-01-10 09:14:00,
2013-01-10 01:19:00,50.1,48.2,29.91,WNW,285,0.0,0.0,93,0.00,,---,0.00,VWS V14.01,2013-01-10 09:19:00,
2013-01-10 01:24:00,49.9,48.0,29.91,WNW,285,0.0,0.0,93,0.00,,---,0.00,VWS V14.01,2013-01-10 09:24:00,
2013-01-10 01:29:00,49.9,48.0,29.91,WNW,285,0.0,0.0,93,0.00,,---,0.00,VWS V14.01,2013-01-10 09:29:00,
2013-01-10 01:39:00,49.9,48.0,29.91,WNW,285,0.0,0.0,93,0.00,,---,0.00,VWS V14.01,2013-01-10 09:39:00,
2013-01-10 01:49:00,49.9,48.0,29.90,WNW,285,0.0,0.0,93,0.00,,---,0.00,VWS V14.01,2013-01-10 09:49:00,
2013-01-10 01:59:00,49.9,48.0,29.90,WNW,285,0.0,0.0,93,0.00,,---,0.00,VWS V14.01,2013-01-10 09:59:00,
2013-01-10 02:04:00,49.9,48.2,29.90,WNW,285,0.0,0.0,94,0.00,,---,0.00,VWS V14.01,2013-01-10 10:04:00,
2013-01-10 02:09:00,49.9,48.2,29.90,WNW,285,0.0,0.0,94,0.00,,---,0.00,VWS V14.01,2013-01-10 10:09:00,
2013-01-10 02:14:00,49.9,48.0,29.90,WNW,285,0.0,0.0,93,0.00,,---,0.00,VWS V14.01,2013-01-10 10:14:00,
2013-01-10 02:24:00,49.8,48.2,29.90,WNW,285,0.0,0.0,94,0.00,,---,0.00,VWS V14.01,2013-01-10 10:24:00,
2013-01-10 02:29:00,49.8,48.2,29.89,WNW,285,0.0,0.0,94,0.00,,---,0.00,VWS V14.01,2013-01-10 10:29:00,
2013-01-10 02:34:00,49.8,48.2,29.89,WNW,285,0.0,0.0,94,0.00,,---,0.00,VWS V14.01,2013-01-10 10:34:00,
2013-01-10 02:44:00,49.8,48.2,29.89,WNW,285,0.0,0.0,94,0.00,,---,0.00,VWS V14.01,2013-01-10 10:44:00,
2013-01-10 02:49:00,49.8,48.2,29.89,WNW,285,0.0,0.0,94,0.00,,---,0.00,VWS V14.01,2013-01-10 10:49:00,
2013-01-10 02:54:00,49.8,48.2,29.89,WNW,285,0.0,0.0,94,0.00,,---,0.00,VWS V14.01,2013-01-10 10:54:00,
2013-01-10 02:59:00,49.6,48.0,29.88,WNW,285,0.0,0.0,94,0.00,,---,0.00,VWS V14.01,2013-01-10 10:59:00,
2013-01-10 03:04:00,49.6,48.0,29.88,WNW,285,0.0,0.0,94,0.00,,---,0.00,VWS V14.01,2013-01-10 11:04:00,
2013-01-10 03:14:00,49.5,47.8,29.88,WNW,285,0.0,0.0,94,0.00,,---,0.00,VWS V14.01,2013-01-10 11:14:00,
2013-01-10 03:19:00,49.4,47.8,29.88,WNW,285,0.0,0.0,94,0.00,,---,0.00,VWS V14.01,2013-01-10 11:19:00,
2013-01-10 03:24:00,49.4,47.8,29.88,WNW,285,0.0,0.0,94,0.00,,---,0.00,VWS V14.01,2013-01-10 11:24:00,
2013-01-10 03:29:00,49.2,47.5,29.87,WNW,285,0.0,0.0,94,0.00,,---,0.00,VWS V14.01,2013-01-10 11:29:00,
2013-01-10 03:34:00,49.1,47.5,29.87,WNW,285,0.0,0.0,94,0.00,,---,0.00,VWS V14.01,2013-01-10 11:34:00,
2013-01-10 03:39:00,48.9,47.2,29.87,WNW,285,0.0,0.0,94,0.00,,---,0.00,VWS V14.01,2013-01-10 11:39:00,
2013-01-10 03:49:00,48.9,47.2,29.87,WNW,285,0.0,0.0,94,0.00,,---,0.00,VWS V14.01,2013-01-10 11:49:00,
2013-01-10 03:54:00,48.9,47.2,29.87,WNW,285,0.0,0.0,94,0.00,,---,0.00,VWS V14.01,2013-01-10 11:54:00,
2013-01-10 03:59:00,48.9,47.2,29.87,WNW,285,0.0,0.0,94,0.00,,---,0.00,VWS V14.01,2013-01-10 11:59:00,
2013-01-10 04:04:00,48.9,47.2,29.87,WNW,285,0.0,0.0,94,0.00,,---,0.00,VWS V14.01,2013-01-10 12:04:00,
2013-01-10 04:09:00,48.9,47.2,29.87,WNW,285,0.0,0.0,94,0.00,,---,0.00,VWS V14.01,2013-01-10 12:09:00,
2013-01-10 04:19:00,49.1,47.5,29.86,WNW,285,0.0,0.0,94,0.00,,---,0.00,VWS V14.01,2013-01-10 12:19:00,
2013-01-10 04:24:00,49.1,47.5,29.86,WNW,285,0.0,0.0,94,0.00,,---,0.00,VWS V14.01,2013-01-10 12:24:00,
2013-01-10 04:34:00,49.1,47.5,29.86,WNW,285,0.0,0.0,94,0.00,,---,0.00,VWS V14.01,2013-01-10 12:34:00,
2013-01-10 04:39:00,49.1,47.5,29.86,WNW,285,0.0,0.0,94,0.00,,---,0.00,VWS V14.01,2013-01-10 12:39:00,
2013-01-10 04:44:00,49.1,47.5,29.85,WNW,285,0.0,0.0,94,0.00,,---,0.00,VWS V14.01,2013-01-10 12:44:00,
2013-01-10 04:49:00,49.1,47.5,29.85,WNW,285,0.0,0.0,94,0.00,,---,0.00,VWS V14.01,2013-01-10 12:49:00,
2013-01-10 04:59:00,49.1,47.5,29.84,WNW,285,0.0,0.0,94,0.00,,---,0.00,VWS V14.01,2013-01-10 12:59:00,
2013-01-10 05:04:00,48.9,47.2,29.84,WNW,285,0.0,0.0,94,0.00,,---,0.00,VWS V14.01,2013-01-10 13:04:00,
2013-01-10 05:09:00,48.9,47.2,29.84,WNW,285,0.0,0.0,94,0.00,,---,0.00,VWS V14.01,2013-01-10 13:09:00,
2013-01-10 05:19:00,48.9,47.2,29.85,WNW,285,0.0,0.0,94,0.00,,---,0.00,VWS V14.01,2013-01-10 13:19:00,
2013-01-10 05:24:00,48.8,47.2,29.85,WNW,285,0.0,0.0,94,0.00,,---,0.00,VWS V14.01,2013-01-10 13:24:00,
2013-01-10 05:29:00,48.8,47.2,29.85,WNW,285,0.0,0.0,94,0.00,,---,0.00,VWS V14.01,2013-01-10 13:29:00,
2013-01-10 05:34:00,48.8,47.2,29.85,WNW,285,0.0,0.0,94,0.00,,---,0.00,VWS V14.01,2013-01-10 13:34:00,
2013-01-10 05:39:00,48.8,47.4,29.85,WNW,285,0.0,0.0,95,0.00,,---,0.00,VWS V14.01,2013-01-10 13:39:00,
2013-01-10 05:44:00,48.8,47.4,29.85,WNW,285,0.0,0.0,95,0.00,,---,0.00,VWS V14.01,2013-01-10 13:44:00,
2013-01-10 05:54:00,48.9,47.5,29.85,WNW,285,0.0,0.0,95,0.00,,---,0.00,VWS V14.01,2013-01-10 13:54:00,
2013-01-10 05:59:00,48.8,47.4,29.85,WNW,285,0.0,0.0,95,0.00,,---,0.00,VWS V14.01,2013-01-10 13:59:00,
2013-01-10 06:04:00,48.8,47.4,29.85,WNW,285,0.0,0.0,95,0.00,,---,0.00,VWS V14.01,2013-01-10 14:04:00,
2013-01-10 06:09:00,48.9,47.5,29.85,WNW,285,0.0,0.0,95,0.00,,---,0.00,VWS V14.01,2013-01-10 14:09:00,
2013-01-10 06:19:00,48.9,47.5,29.85,WNW,285,0.0,0.0,95,0.00,,---,0.00,VWS V14.01,2013-01-10 14:19:00,
2013-01-10 06:29:00,48.9,47.5,29.85,WNW,285,0.0,0.0,95,0.00,,---,0.00,VWS V14.01,2013-01-10 14:29:00,
2013-01-10 06:39:00,48.9,47.5,29.85,WNW,285,0.0,0.0,95,0.00,,---,0.00,VWS V14.01,2013-01-10 14:39:00,
2013-01-10 06:44:00,48.9,47.5,29.86,WNW,285,0.0,0.0,95,0.00,,---,0.00,VWS V14.01,2013-01-10 14:44:00,
2013-01-10 06:54:00,48.9,47.5,29.86,WNW,285,0.0,0.0,95,0.00,,---,0.00,VWS V14.01,2013-01-10 14:54:00,
2013-01-10 06:59:00,48.9,47.5,29.86,WNW,285,0.0,0.0,95,0.00,,---,0.00,VWS V14.01,2013-01-10 14:59:00,
2013-01-10 07:09:00,48.0,46.4,29.86,WNW,285,0.0,0.0,94,0.00,,---,0.00,VWS V14.01,2013-01-10 15:09:00,
2013-01-10 07:19:00,46.1,44.5,29.87,WNW,285,0.0,0.0,94,0.00,,---,0.00,VWS V14.01,2013-01-10 15:19:00,
2013-01-10 07:24:00,45.7,44.1,29.87,WNW,285,0.0,0.0,94,0.00,,---,0.00,VWS V14.01,2013-01-10 15:24:00,
2013-01-10 07:29:00,45.4,43.8,29.86,WNW,285,0.0,0.0,94,0.00,,---,0.00,VWS V14.01,2013-01-10 15:29:00,
2013-01-10 07:34:00,45.2,43.3,29.86,WNW,285,0.0,0.0,93,0.00,,---,0.00,VWS V14.01,2013-01-10 15:34:00,
2013-01-10 07:39:00,44.9,43.0,29.86,WNW,285,0.0,0.0,93,0.00,,---,0.00,VWS V14.01,2013-01-10 15:39:00,
2013-01-10 07:49:00,45.1,43.2,29.88,NE,49,0.0,0.0,93,0.00,,---,0.00,VWS V14.01,2013-01-10 15:49:00,
2013-01-10 07:54:00,45.2,43.3,29.88,NE,49,0.0,0.0,93,0.00,,---,0.00,VWS V14.01,2013-01-10 15:54:00,
2013-01-10 07:59:00,45.5,43.6,29.88,NE,49,0.0,0.0,93,0.00,,---,0.00,VWS V14.01,2013-01-10 15:59:00,
2013-01-10 08:09:00,45.5,43.3,29.88,SSW,212,0.0,0.0,92,0.00,,---,0.00,VWS V14.01,2013-01-10 16:09:00,
2013-01-10 08:14:00,46.7,43.3,29.88,SW,215,0.0,0.0,88,0.00,,---,0.00,VWS V14.01,2013-01-10 16:14:00,
2013-01-10 08:19:00,47.1,43.1,29.88,SW,215,0.0,0.0,86,0.00,,---,0.00,VWS V14.01,2013-01-10 16:19:00,
2013-01-10 08:24:00,47.4,42.8,29.88,WNW,287,0.0,0.0,84,0.00,,---,0.00,VWS V14.01,2013-01-10 16:24:00,
2013-01-10 08:29:00,47.7,42.2,29.88,West,281,0.0,0.0,81,0.00,,---,0.00,VWS V14.01,2013-01-10 16:29:00,
2013-01-10 08:39:00,48.0,41.5,29.88,West,281,0.0,0.0,78,0.00,,---,0.00,VWS V14.01,2013-01-10 16:39:00,
2013-01-10 08:44:00,47.9,41.0,29.89,West,263,0.0,0.0,77,0.00,,---,0.00,VWS V14.01,2013-01-10 16:44:00,
2013-01-10 08:54:00,48.9,40.3,29.89,WNW,284,0.0,0.0,72,0.00,,---,0.00,VWS V14.01,2013-01-10 16:54:00,
2013-01-10 09:04:00,49.5,39.0,29.89,SSW,192,0.0,0.0,67,0.00,,---,0.00,VWS V14.01,2013-01-10 17:04:00,
2013-01-10 09:09:00,49.4,38.1,29.89,South,169,0.0,0.0,65,0.00,,---,0.00,VWS V14.01,2013-01-10 17:09:00,
2013-01-10 09:19:00,51.0,37.2,29.89,ESE,103,0.0,0.0,59,0.00,,---,0.00,VWS V14.01,2013-01-10 17:19:00,
2013-01-10 09:24:00,51.3,36.6,29.89,SSW,198,0.0,0.0,57,0.00,,---,0.00,VWS V14.01,2013-01-10 17:24:00,
2013-01-10 09:29:00,51.0,35.9,29.90,SSW,198,0.0,0.0,56,0.00,,---,0.00,VWS V14.01,2013-01-10 17:29:00,
2013-01-10 09:34:00,51.0,37.2,29.90,SSW,196,0.0,0.0,59,0.00,,---,0.00,VWS V14.01,2013-01-10 17:34:00,
2013-01-10 09:39:00,51.4,36.7,29.90,South,191,0.0,0.0,57,0.00,,---,0.00,VWS V14.01,2013-01-10 17:39:00,
2013-01-10 09:49:00,52.6,36.0,29.90,SSW,202,0.0,0.0,53,0.00,,---,0.00,VWS V14.01,2013-01-10 17:49:00,
2013-01-10 09:59:00,53.2,35.1,29.89,ESE,119,0.0,0.0,50,0.00,,---,0.00,VWS V14.01,2013-01-10 17:59:00,
2013-01-10 10:09:00,53.8,35.1,29.89,SSE,162,0.0,0.0,49,0.00,,---,0.00,VWS V14.01,2013-01-10 18:09:00,
2013-01-10 10:19:00,53.8,34.1,29.90,SSE,152,0.0,0.0,47,0.00,,---,0.00,VWS V14.01,2013-01-10 18:19:00,
2013-01-10 10:24:00,54.1,33.8,29.90,SW,234,0.0,0.0,46,0.00,,---,0.00,VWS V14.01,2013-01-10 18:24:00,
2013-01-10 10:34:00,54.4,33.0,29.89,SW,223,0.0,0.0,44,0.00,,---,0.00,VWS V14.01,2013-01-10 18:34:00,
2013-01-10 10:39:00,54.8,35.0,29.89,SE,128,0.0,0.0,47,0.00,,---,0.00,VWS V14.01,2013-01-10 18:39:00,
2013-01-10 10:44:00,55.9,37.5,29.89,South,184,0.0,7.0,50,0.00,,---,0.00,VWS V14.01,2013-01-10 18:44:00,
2013-01-10 10:49:00,55.3,36.5,29.89,SW,219,0.0,1.0,49,0.00,,---,0.00,VWS V14.01,2013-01-10 18:49:00,
2013-01-10 10:59:00,53.6,37.4,29.89,WSW,239,0.0,7.0,54,0.00,,---,0.00,VWS V14.01,2013-01-10 18:59:00,
2013-01-10 11:09:00,54.5,39.6,29.89,SW,232,0.0,0.0,57,0.00,,---,0.00,VWS V14.01,2013-01-10 19:09:00,
2013-01-10 11:19:00,56.0,39.6,29.87,SSW,198,0.0,0.0,54,0.00,,---,0.00,VWS V14.01,2013-01-10 19:19:00,
2013-01-10 11:24:00,56.3,38.9,29.87,SW,230,0.0,0.0,52,0.00,,---,0.00,VWS V14.01,2013-01-10 19:24:00,
2013-01-10 11:29:00,56.0,37.6,29.87,SSW,213,0.0,0.0,50,0.00,,---,0.00,VWS V14.01,2013-01-10 19:29:00,
2013-01-10 11:34:00,54.8,39.4,29.87,WSW,243,0.0,0.0,56,0.00,,---,0.00,VWS V14.01,2013-01-10 19:34:00,
2013-01-10 11:44:00,53.5,39.1,29.86,West,268,0.0,0.0,58,0.00,,---,0.00,VWS V14.01,2013-01-10 19:44:00,
2013-01-10 11:49:00,54.1,38.8,29.86,West,268,0.0,0.0,56,0.00,,---,0.00,VWS V14.01,2013-01-10 19:49:00,
2013-01-10 11:59:00,55.3,39.0,29.85,West,268,0.0,0.0,54,0.00,,---,0.00,VWS V14.01,2013-01-10 19:59:00,
2013-01-10 12:04:00,56.5,41.0,29.85,South,186,0.0,0.0,56,0.00,,---,0.00,VWS V14.01,2013-01-10 20:04:00,
2013-01-10 12:09:00,56.6,37.7,29.85,South,174,0.0,0.0,49,0.00,,---,0.00,VWS V14.01,2013-01-10 20:09:00,
2013-01-10 12:14:00,57.5,40.0,29.84,South,191,0.0,0.0,52,0.00,,---,0.00,VWS V14.01,2013-01-10 20:14:00,
2013-01-10 12:24:00,57.5,39.0,29.84,East,90,0.0,0.0,50,0.00,,---,0.00,VWS V14.01,2013-01-10 20:24:00,
2013-01-10 12:29:00,57.6,37.5,29.84,SE,145,0.0,0.0,47,0.00,,---,0.00,VWS V14.01,2013-01-10 20:29:00,
2013-01-10 12:34:00,58.0,36.2,29.84,South,191,0.0,0.0,44,0.00,,---,0.00,VWS V14.01,2013-01-10 20:34:00,
2013-01-10 12:39:00,58.4,35.4,29.84,ESE,123,0.0,0.0,42,0.00,,---,0.00,VWS V14.01,2013-01-10 20:39:00,
2013-01-10 12:44:00,58.7,36.3,29.83,NE,54,0.0,0.0,43,0.00,,---,0.00,VWS V14.01,2013-01-10 20:44:00,
2013-01-10 12:54:00,58.4,36.0,29.83,ENE,72,0.0,0.0,43,0.00,,---,0.00,VWS V14.01,2013-01-10 20:54:00,
2013-01-10 13:00:00,58.6,35.6,29.84,NE,47,0.0,0.0,42,0.00,,---,0.00,VWS V14.01,2013-01-10 21:00:00,
2013-01-10 13:09:00,58.1,33.9,29.84,ENE,66,2.0,6.0,40,0.00,,---,0.00,VWS V14.01,2013-01-10 21:09:00,
2013-01-10 13:19:00,57.0,33.5,29.83,NE,47,0.0,0.0,41,0.00,,---,0.00,VWS V14.01,2013-01-10 21:19:00,
2013-01-10 13:29:00,56.2,34.0,29.84,ENE,65,7.0,8.0,43,0.00,,---,0.00,VWS V14.01,2013-01-10 21:29:00,
2013-01-10 13:34:00,55.7,31.1,29.84,NE,40,7.0,8.0,39,0.00,,---,0.00,VWS V14.01,2013-01-10 21:34:00,
2013-01-10 13:44:00,55.9,26.5,29.85,North,0,0.0,11.0,32,0.00,,---,0.00,VWS V14.01,2013-01-10 21:44:00,
2013-01-10 13:49:00,55.4,26.8,29.85,North,10,11.0,13.0,33,0.00,,---,0.00,VWS V14.01,2013-01-10 21:49:00,
2013-01-10 13:54:00,55.0,26.5,29.85,North,7,8.0,21.0,33,0.00,,---,0.00,VWS V14.01,2013-01-10 21:54:00,
2013-01-10 13:59:00,56.0,28.0,29.85,NNE,14,13.0,19.0,34,0.00,,---,0.00,VWS V14.01,2013-01-10 21:59:00,
2013-01-10 14:04:00,56.3,27.6,29.85,NNW,346,8.0,19.0,33,0.00,,---,0.00,VWS V14.01,2013-01-10 22:04:00,
2013-01-10 14:10:00,56.3,28.3,29.85,North,7,8.0,20.0,34,0.00,,---,0.00,VWS V14.01,2013-01-10 22:10:00,
2013-01-10 14:19:00,56.6,28.6,29.86,North,356,9.0,14.0,34,0.00,,---,0.00,VWS V14.01,2013-01-10 22:19:00,
2013-01-10 14:29:00,56.3,27.6,29.86,NE,35,6.0,16.0,33,0.00,,---,0.00,VWS V14.01,2013-01-10 22:29:00,
2013-01-10 14:39:00,56.3,28.3,29.86,ENE,72,7.0,13.0,34,0.00,,---,0.00,VWS V14.01,2013-01-10 22:39:00,
2013-01-10 14:49:00,55.9,25.7,29.86,WNW,292,0.0,11.0,31,0.00,,---,0.00,VWS V14.01,2013-01-10 22:49:00,
2013-01-10 14:54:00,55.9,26.5,29.86,NNE,31,7.0,7.0,32,0.00,,---,0.00,VWS V14.01,2013-01-10 22:54:00,
2013-01-10 14:59:00,56.2,26.8,29.87,North,0,0.0,7.0,32,0.00,,---,0.00,VWS V14.01,2013-01-10 22:59:00,
2013-01-10 15:09:00,56.5,28.5,29.87,WSW,248,0.0,12.0,34,0.00,,---,0.00,VWS V14.01,2013-01-10 23:09:00,
2013-01-10 15:14:00,56.5,28.5,29.86,SSW,210,0.0,1.0,34,0.00,,---,0.00,VWS V14.01,2013-01-10 23:14:00,
2013-01-10 15:19:00,56.6,29.3,29.86,North,349,0.0,5.0,35,0.00,,---,0.00,VWS V14.01,2013-01-10 23:19:00,
2013-01-10 15:29:00,55.7,27.1,29.87,NNE,25,0.0,6.0,33,0.00,,---,0.00,VWS V14.01,2013-01-10 23:29:00,
2013-01-10 15:39:00,55.7,27.8,29.87,SSE,164,0.0,0.0,34,0.00,,---,0.00,VWS V14.01,2013-01-10 23:39:00,
2013-01-10 15:49:00,54.5,26.7,29.88,NNW,346,6.0,17.0,34,0.00,,---,0.00,VWS V14.01,2013-01-10 23:49:00,
2013-01-10 15:59:00,53.5,27.2,29.87,North,10,4.0,7.0,36,0.00,,---,0.00,VWS V14.01,2013-01-10 23:59:00,
2013-01-10 16:04:00,53.5,27.2,29.87,SE,140,0.0,4.0,36,0.00,,---,0.00,VWS V14.01,2013-01-11 00:04:00,
2013-01-10 16:09:00,53.6,27.3,29.87,NNE,14,0.0,8.0,36,0.00,,---,0.00,VWS V14.01,2013-01-11 00:09:00,
2013-01-10 16:19:00,53.5,27.2,29.87,North,1,0.0,0.0,36,0.00,,---,0.00,VWS V14.01,2013-01-11 00:19:00,
2013-01-10 16:24:00,53.3,25.0,29.87,North,1,0.0,0.0,33,0.00,,---,0.00,VWS V14.01,2013-01-11 00:24:00,
2013-01-10 16:34:00,52.8,25.9,29.88,North,8,0.0,0.0,35,0.00,,---,0.00,VWS V14.01,2013-01-11 00:34:00,
2013-01-10 16:39:00,52.5,27.6,29.88,North,8,0.0,0.0,38,0.00,,---,0.00,VWS V14.01,2013-01-11 00:39:00,
2013-01-10 16:44:00,52.5,27.0,29.88,North,7,0.0,0.0,37,0.00,,---,0.00,VWS V14.01,2013-01-11 00:44:00,
2013-01-10 16:49:00,52.5,27.0,29.88,WNW,285,0.0,0.0,37,0.00,,---,0.00,VWS V14.01,2013-01-11 00:49:00,
2013-01-10 16:59:00,51.9,25.8,29.88,WSW,251,0.0,0.0,36,0.00,,---,0.00,VWS V14.01,2013-01-11 00:59:00,
2013-01-10 17:04:00,51.4,26.0,29.88,WNW,299,0.0,7.0,37,0.00,,---,0.00,VWS V14.01,2013-01-11 01:04:00,
2013-01-10 17:14:00,50.5,25.2,29.89,WSW,240,0.0,6.0,37,0.00,,---,0.00,VWS V14.01,2013-01-11 01:14:00,
2013-01-10 17:19:00,50.2,25.6,29.89,WNW,282,2.0,9.0,38,0.00,,---,0.00,VWS V14.01,2013-01-11 01:19:00,
2013-01-10 17:24:00,49.9,25.3,29.89,NNW,347,0.0,11.0,38,0.00,,---,0.00,VWS V14.01,2013-01-11 01:24:00,
2013-01-10 17:34:00,49.8,26.5,29.91,NNE,18,0.0,14.0,40,0.00,,---,0.00,VWS V14.01,2013-01-11 01:34:00,
2013-01-10 17:44:00,48.9,30.1,29.92,NNE,30,11.0,19.0,48,0.00,,---,0.00,VWS V14.01,2013-01-11 01:44:00,
2013-01-10 17:49:00,48.0,31.7,29.92,NNE,16,6.0,16.0,53,0.00,,---,0.00,VWS V14.01,2013-01-11 01:49:00,
2013-01-10 17:54:00,47.3,32.4,29.92,NNE,16,11.0,16.0,56,0.00,,---,0.00,VWS V14.01,2013-01-11 01:54:00,
2013-01-10 18:04:00,46.2,32.7,29.94,NNE,18,7.0,12.0,59,0.00,,---,0.00,VWS V14.01,2013-01-11 02:04:00,
2013-01-10 18:14:00,45.5,32.8,29.93,NNE,28,8.0,13.0,61,0.00,,---,0.00,VWS V14.01,2013-01-11 02:14:00,
2013-01-10 18:19:00,45.2,33.0,29.93,NNE,30,5.0,12.0,62,0.00,,---,0.00,VWS V14.01,2013-01-11 02:19:00,
2013-01-10 18:24:00,44.9,33.1,29.93,North,0,0.0,10.0,63,0.00,,---,0.00,VWS V14.01,2013-01-11 02:24:00,
2013-01-10 18:29:00,44.8,33.4,29.93,North,359,0.0,0.0,64,0.00,,---,0.00,VWS V14.01,2013-01-11 02:29:00,
2013-01-10 18:34:00,44.5,33.1,29.93,NNE,28,6.0,10.0,64,0.00,,---,0.00,VWS V14.01,2013-01-11 02:34:00,
2013-01-10 18:44:00,44.1,32.7,29.94,North,8,4.0,7.0,64,0.00,,---,0.00,VWS V14.01,2013-01-11 02:44:00,
2013-01-10 18:49:00,43.9,32.9,29.94,NNE,16,5.0,6.0,65,0.00,,---,0.00,VWS V14.01,2013-01-11 02:49:00,
2013-01-10 18:54:00,43.8,32.8,29.94,NNE,17,7.0,10.0,65,0.00,,---,0.00,VWS V14.01,2013-01-11 02:54:00,
2013-01-10 19:04:00,43.9,32.5,29.96,NNE,13,16.0,17.0,64,0.00,,---,0.00,VWS V14.01,2013-01-11 03:04:00,
2013-01-10 19:09:00,44.6,33.2,29.96,NNE,13,16.0,16.0,64,0.00,,---,0.00,VWS V14.01,2013-01-11 03:09:00,
2013-01-10 19:19:00,44.8,33.8,29.96,NNE,13,16.0,16.0,65,0.00,,---,0.00,VWS V14.01,2013-01-11 03:19:00,
2013-01-10 19:24:00,44.6,34.0,29.96,NNE,13,16.0,16.0,66,0.00,,---,0.00,VWS V14.01,2013-01-11 03:24:00,
2013-01-10 19:34:00,44.2,34.0,29.96,NNE,13,16.0,16.0,67,0.00,,---,0.00,VWS V14.01,2013-01-11 03:34:00,
2013-01-10 19:44:00,43.8,33.9,29.96,NNE,13,16.0,16.0,68,0.00,,---,0.00,VWS V14.01,2013-01-11 03:44:00,
2013-01-10 19:54:00,43.2,33.4,29.96,NNE,13,16.0,16.0,68,0.00,,---,0.00,VWS V14.01,2013-01-11 03:54:00,
2013-01-10 20:00:00,42.8,33.0,29.98,NNE,13,16.0,16.0,68,0.00,,---,0.00,VWS V14.01,2013-01-11 04:00:00,
2013-01-10 20:09:00,42.3,32.9,29.98,NNE,13,16.0,16.0,69,0.00,,---,0.00,VWS V14.01,2013-01-11 04:09:00,
2013-01-10 20:14:00,42.1,33.0,29.97,NNE,13,16.0,16.0,70,0.00,,---,0.00,VWS V14.01,2013-01-11 04:14:00,
2013-01-10 20:19:00,41.9,32.8,29.97,NNE,13,16.0,16.0,70,0.00,,---,0.00,VWS V14.01,2013-01-11 04:19:00,
2013-01-10 20:24:00,41.8,33.1,29.97,NNE,13,16.0,16.0,71,0.00,,---,0.00,VWS V14.01,2013-01-11 04:24:00,
2013-01-10 20:34:00,41.3,33.0,29.98,NNE,13,16.0,16.0,72,0.00,,---,0.00,VWS V14.01,2013-01-11 04:34:00,
2013-01-10 20:39:00,41.2,32.9,29.98,NNE,13,16.0,16.0,72,0.00,,---,0.00,VWS V14.01,2013-01-11 04:39:00,
2013-01-10 20:44:00,40.9,32.9,30.00,NNE,13,16.0,16.0,73,0.00,,---,0.00,VWS V14.01,2013-01-11 04:44:00,
2013-01-10 20:49:00,40.8,32.8,30.00,NNE,13,16.0,16.0,73,0.00,,---,0.00,VWS V14.01,2013-01-11 04:49:00,
2013-01-10 20:54:00,40.6,32.6,30.00,NNE,13,16.0,16.0,73,0.00,,---,0.00,VWS V14.01,2013-01-11 04:54:00,
2013-01-10 21:04:00,40.2,32.9,30.00,NNE,13,16.0,16.0,75,0.00,,---,0.00,VWS V14.01,2013-01-11 05:04:00,
2013-01-10 21:09:00,40.1,32.8,30.00,NNE,13,16.0,16.0,75,0.00,,---,0.00,VWS V14.01,2013-01-11 05:09:00,
2013-01-10 21:14:00,40.1,32.8,30.02,NNE,13,16.0,16.0,75,0.00,,---,0.00,VWS V14.01,2013-01-11 05:14:00,
2013-01-10 21:19:00,40.2,33.2,30.02,NNE,13,16.0,16.0,76,0.00,,---,0.00,VWS V14.01,2013-01-11 05:19:00,
2013-01-10 21:24:00,40.6,33.0,30.02,NNE,13,16.0,16.0,74,0.00,,---,0.00,VWS V14.01,2013-01-11 05:24:00,
2013-01-10 21:29:00,41.3,33.3,30.00,NNE,13,16.0,16.0,73,0.00,,---,0.00,VWS V14.01,2013-01-11 05:29:00,
2013-01-10 21:34:00,41.9,33.5,30.00,NNE,13,16.0,16.0,72,0.00,,---,0.00,VWS V14.01,2013-01-11 05:34:00,
2013-01-10 21:39:00,42.1,33.4,30.00,NNE,13,16.0,16.0,71,0.00,,---,0.00,VWS V14.01,2013-01-11 05:39:00,
2013-01-10 21:50:00,42.5,33.1,30.00,NNE,13,16.0,16.0,69,0.00,,---,0.00,VWS V14.01,2013-01-11 05:50:00,
2013-01-10 21:59:00,42.2,32.8,30.02,NNE,13,16.0,16.0,69,0.00,,---,0.00,VWS V14.01,2013-01-11 05:59:00,
2013-01-10 22:04:00,42.1,33.0,30.02,NNE,13,16.0,16.0,70,0.00,,---,0.00,VWS V14.01,2013-01-11 06:04:00,
2013-01-10 22:09:00,42.1,32.7,30.02,NNE,13,16.0,16.0,69,0.00,,---,0.00,VWS V14.01,2013-01-11 06:09:00,
2013-01-10 22:19:00,42.2,32.4,30.02,NNE,13,16.0,16.0,68,0.00,,---,0.00,VWS V14.01,2013-01-11 06:19:00,
2013-01-10 22:24:00,42.1,32.3,30.02,NNE,13,16.0,16.0,68,0.00,,---,0.00,VWS V14.01,2013-01-11 06:24:00,
2013-01-10 22:29:00,41.9,32.1,30.03,NNE,13,16.0,16.0,68,0.00,,---,0.00,VWS V14.01,2013-01-11 06:29:00,
2013-01-10 22:39:00,41.6,31.8,30.03,NNE,13,16.0,16.0,68,0.00,,---,0.00,VWS V14.01,2013-01-11 06:39:00,
2013-01-10 22:44:00,41.3,31.5,30.02,NNE,13,16.0,16.0,68,0.00,,---,0.00,VWS V14.01,2013-01-11 06:44:00,
2013-01-10 22:49:00,41.2,31.5,30.02,NNE,13,16.0,16.0,68,0.00,,---,0.00,VWS V14.01,2013-01-11 06:49:00,
2013-01-10 22:54:00,41.2,31.5,30.02,NNE,13,16.0,16.0,68,0.00,,---,0.00,VWS V14.01,2013-01-11 06:54:00,
2013-01-10 22:59:00,41.2,31.5,30.03,NNE,13,16.0,16.0,68,0.00,,---,0.00,VWS V14.01,2013-01-11 06:59:00,
2013-01-10 23:04:00,41.1,31.4,30.03,NNE,13,16.0,16.0,68,0.00,,---,0.00,VWS V14.01,2013-01-11 07:04:00,
2013-01-10 23:14:00,40.9,31.5,30.03,NNE,13,16.0,16.0,69,0.00,,---,0.00,VWS V14.01,2013-01-11 07:14:00,
2013-01-10 23:19:00,40.8,31.4,30.03,NNE,13,16.0,16.0,69,0.00,,---,0.00,VWS V14.01,2013-01-11 07:19:00,
2013-01-10 23:24:00,40.6,31.2,30.03,NNE,13,16.0,16.0,69,0.00,,---,0.00,VWS V14.01,2013-01-11 07:24:00,
2013-01-10 23:29:00,40.3,31.3,30.03,NNE,13,16.0,16.0,70,0.00,,---,0.00,VWS V14.01,2013-01-11 07:29:00,
2013-01-10 23:34:00,40.1,31.1,30.03,NNE,13,16.0,16.0,70,0.00,,---,0.00,VWS V14.01,2013-01-11 07:34:00,
2013-01-10 23:44:00,39.6,31.0,30.03,NNE,13,16.0,16.0,71,0.00,,---,0.00,VWS V14.01,2013-01-11 07:44:00,
2013-01-10 23:49:00,39.3,31.0,30.03,NNE,13,16.0,16.0,72,0.00,,---,0.00,VWS V14.01,2013-01-11 07:49:00,
2013-01-10 23:59:00,38.9,30.7,30.04,NNE,13,16.0,16.0,72,0.00,,---,0.00,VWS V14.01,2013-01-11 07:59:00,